Tracking 17145 objects as of 29-May-2015
HD Live streaming from Space Station

GALAXY 19

Track GALAXY 19 now!
GALAXY 19 is classified as:


NORAD ID: 33376
Int'l Code: 2008-045A
Perigee: 35,778.4 km
Apogee: 35,809.2 km
Inclination: 0.0 °
Period: 1,436.1 minutes
Semi major axis: 42164 km
RCS: 15.8489 m2 (large)
Launch date: September 24, 2008
Source: United States (US)

The Galaxy 19 satellite will use an onboard engine to reach a circular geostationary orbit 22,300 miles [35,800 km] above the equator where it can match Earth's rotation and seem parked over one spot of the globe. That slot will be 97 degrees West longitude where it will replace the 11-year-old Galaxy 25 spacecraft, formerly known as Telstar 5.
Your satellite tracking list
Your tracking list is empty





NASA's NSSDC Master Catalog

Two Line Element Set (TLE):
1 33376U 08045A   15148.27900948 -.00000141  00000-0  00000+0 0  9993
2 33376 000.0043 271.7215 0003653 156.8737 180.3432 01.00271443 24391

Source of the keplerian elements: AFSPC

N2YO: 390